$Date,$Time,DM0201B,DM0203B,DM0205B,DM0207B,DM0209B
07/10/99,00:00:01,362,181,-15,0,937
07/10/99,00:05:01,590,182,-15,0,937
07/10/99,00:10:01,412,165,-15,0,937
07/10/99,00:15:01,387,165,-15,0,937
07/10/99,00:20:01,460,175,-15,0,937
07/10/99,00:25:01,457,164,-15,0,937
07/10/99,00:30:01,585,164,-15,0,935
07/10/99,00:35:01,635,164,-15,0,933
07/10/99,00:40:01,677,164,-15,0,933
07/10/99,00:45:01,615,164,-15,0,933
07/10/99,00:50:01,758,164,-15,0,935
07/10/99,00:55:01,468,174,-15,0,937
07/10/99,01:00:01,633,162,-15,0,937
07/10/99,01:05:01,394,171,-15,0,939
07/10/99,01:10:01,648,172,-15,0,937
07/10/99,01:15:01,435,158,-15,0,937
07/10/99,01:20:01,466,172,-15,0,937
07/10/99,01:25:01,638,165,-15,0,935
07/10/99,01:30:01,608,165,-15,0,935
07/10/99,01:35:01,798,165,-15,0,933
07/10/99,01:40:01,769,165,-15,0,933
07/10/99,01:45:01,849,165,-15,0,933
07/10/99,01:50:01,778,166,-15,0,933
07/10/99,01:55:01,727,166,-15,0,933
07/10/99,02:00:01,886,166,-15,0,933
07/10/99,02:05:01,840,166,-15,0,933
07/10/99,02:10:01,777,166,-15,0,933
07/10/99,02:15:01,744,166,-15,0,933
07/10/99,02:20:01,808,166,-15,0,933
07/10/99,02:25:01,759,166,-15,0,935
07/10/99,02:30:01,716,166,-15,0,935
07/10/99,02:35:01,598,176,-15,0,935
07/10/99,02:40:01,631,175,-15,0,937
07/10/99,02:45:01,582,159,-15,0,935
07/10/99,02:50:01,502,170,-15,0,935
07/10/99,02:55:01,683,172,-15,0,935
07/10/99,03:00:01,638,172,-15,0,935
07/10/99,03:05:01,642,172,-15,0,935
07/10/99,03:10:01,688,172,-15,0,935
07/10/99,03:15:01,695,172,-15,0,935
07/10/99,03:20:01,738,162,-15,0,935
07/10/99,03:25:01,794,174,-15,0,935
07/10/99,03:30:01,779,164,-15,0,935
07/10/99,03:35:01,732,164,-15,0,935
07/10/99,03:40:01,786,164,-15,0,935
07/10/99,03:45:01,675,164,-15,0,935
07/10/99,03:50:01,642,164,-15,0,935
07/10/99,03:55:01,646,176,-15,0,937
07/10/99,04:00:01,674,166,-15,0,935
07/10/99,04:05:01,641,166,-15,0,935
07/10/99,04:10:01,659,165,-15,0,935
07/10/99,04:15:01,599,165,-15,0,935
07/10/99,04:20:01,654,165,-15,0,935
07/10/99,04:25:01,618,166,-15,0,935
07/10/99,04:30:01,696,156,-15,0,933
07/10/99,04:35:01,639,166,-15,0,933
07/10/99,04:40:01,740,157,-15,0,933
07/10/99,04:45:01,637,173,-15,0,935
07/10/99,04:50:01,566,167,-15,0,937
07/10/99,04:55:01,732,176,-15,0,937
07/10/99,05:00:01,563,166,-15,0,937
07/10/99,05:05:01,530,170,-15,0,937
07/10/99,05:10:01,546,170,-15,0,937
07/10/99,05:15:01,610,170,-15,0,937
07/10/99,05:20:01,647,163,-15,0,935
07/10/99,05:25:01,742,173,-15,0,935
07/10/99,05:30:01,838,161,-15,0,935
07/10/99,05:35:01,745,161,-15,0,935
07/10/99,05:40:01,667,162,-15,0,935
07/10/99,05:45:01,759,173,-15,0,935
07/10/99,05:50:01,657,172,-15,0,937
07/10/99,05:55:01,644,159,-15,0,937
07/10/99,06:00:01,620,171,-15,0,937
07/10/99,06:05:01,625,164,-15,0,937
07/10/99,06:10:01,625,164,-15,0,937
07/10/99,06:15:01,615,165,-15,0,937
07/10/99,06:20:01,626,163,-17,0,937
07/10/99,06:25:01,751,163,-17,0,935
07/10/99,06:30:01,796,163,-17,0,935
07/10/99,06:35:01,782,163,-17,0,933
07/10/99,06:40:01,738,163,-17,0,933
07/10/99,06:45:01,801,163,-17,0,933
07/10/99,06:50:01,802,174,-17,0,937
07/10/99,06:55:01,601,174,-17,0,937
07/10/99,07:00:01,529,174,-17,0,937
07/10/99,07:05:01,532,174,-17,0,937
07/10/99,07:10:01,639,174,-17,0,937
07/10/99,07:15:01,654,174,-17,0,937
07/10/99,07:20:01,767,173,-17,0,935
07/10/99,07:25:01,732,173,-17,0,935
07/10/99,07:30:01,757,173,-17,0,935
07/10/99,07:35:01,745,173,-17,0,935
07/10/99,07:40:01,615,173,-15,0,937
07/10/99,07:45:01,467,173,-15,0,937
07/10/99,07:50:01,540,172,-15,0,937
07/10/99,07:55:01,612,185,-15,0,937
07/10/99,08:00:01,659,174,-15,0,937
07/10/99,08:05:01,618,174,-15,0,935
07/10/99,08:10:01,788,174,-15,0,935
07/10/99,08:15:01,670,174,-15,0,937
07/10/99,08:20:01,556,174,-15,0,937
07/10/99,08:25:01,589,174,-15,0,937
07/10/99,08:30:01,671,174,-15,0,935
07/10/99,08:35:01,800,174,-15,0,935
07/10/99,08:40:01,609,174,-15,0,937
07/10/99,08:45:01,673,174,-17,0,937
07/10/99,08:50:01,664,174,-17,0,937
07/10/99,08:55:01,766,174,-17,0,935
07/10/99,09:00:01,606,174,-17,0,939
07/10/99,09:05:01,560,184,-17,0,939
07/10/99,09:10:01,702,184,-17,0,939
07/10/99,09:15:01,703,184,-17,0,939
07/10/99,09:20:01,691,184,-17,0,939
07/10/99,09:25:01,666,184,-17,0,939
07/10/99,09:30:01,660,184,-17,0,939
07/10/99,09:35:01,722,184,-17,0,937
07/10/99,09:40:01,740,184,-17,0,939
07/10/99,09:45:01,726,184,-17,0,939
07/10/99,09:50:01,577,184,-17,0,939
07/10/99,09:55:01,545,184,-17,0,939
07/10/99,10:00:01,612,181,-17,0,937
07/10/99,10:05:01,699,167,-17,0,937
07/10/99,10:10:01,784,167,-17,0,935
07/10/99,10:15:01,819,177,-17,0,935
07/10/99,10:20:01,891,177,-17,0,935
07/10/99,10:25:01,789,177,-17,0,935
07/10/99,10:30:01,786,177,-17,0,937
07/10/99,10:35:01,693,187,-17,0,939
07/10/99,10:40:01,737,187,-17,0,939
07/10/99,10:45:01,652,182,-17,0,939
07/10/99,10:50:01,802,182,-17,0,937
07/10/99,10:55:01,797,182,-17,0,937
07/10/99,11:00:01,804,182,-17,0,937
07/10/99,11:05:01,757,182,-17,0,938
07/10/99,11:10:01,777,182,-17,0,938
07/10/99,11:15:01,742,182,-17,0,940
07/10/99,11:20:01,646,182,-17,0,940
07/10/99,11:25:01,745,182,-17,0,940
07/10/99,11:30:01,648,172,-17,0,940
07/10/99,11:35:01,726,172,-17,0,940
07/10/99,11:40:01,612,172,-19,0,940
07/10/99,11:45:01,718,173,-19,0,940
07/10/99,11:50:01,650,173,-19,0,940
07/10/99,11:55:01,633,173,-19,0,942
07/10/99,12:00:01,581,173,-19,0,942
07/10/99,12:05:01,583,174,-19,0,942
07/10/99,12:10:01,628,164,-19,0,942
07/10/99,12:15:01,529,164,-19,0,942
07/10/99,12:20:01,535,164,-19,0,942
07/10/99,12:25:01,525,163,-19,0,942
07/10/99,12:30:01,584,175,-19,0,944
07/10/99,12:35:01,522,175,-19,0,944
07/10/99,12:40:01,454,175,-19,0,944
07/10/99,12:45:01,494,175,-19,0,944
07/10/99,12:50:01,458,175,-19,0,944
07/10/99,12:55:01,500,180,-19,0,944
07/10/99,13:00:01,536,179,-19,0,944
07/10/99,13:05:01,557,179,-19,0,944
07/10/99,13:10:01,551,179,-19,0,944
07/10/99,13:15:01,552,167,-19,0,944
07/10/99,13:20:01,574,167,-19,0,944
07/10/99,13:25:01,591,162,-19,0,944
07/10/99,13:30:01,623,176,-19,0,942
07/10/99,13:35:01,685,176,-19,0,942
07/10/99,13:40:01,611,176,-19,0,944
07/10/99,13:45:01,651,176,-19,0,944
07/10/99,13:50:01,584,176,-19,0,944
07/10/99,13:55:01,650,176,-19,0,944
07/10/99,14:00:01,568,176,-19,0,944
07/10/99,14:05:01,634,176,-19,0,944
07/10/99,14:10:01,561,176,-19,0,944
07/10/99,14:15:01,633,176,-19,0,946
07/10/99,14:20:01,656,176,-19,0,944
07/10/99,14:25:01,614,176,-19,0,944
07/10/99,14:30:01,616,176,-19,0,946
07/10/99,14:35:01,654,174,-19,0,946
07/10/99,14:40:01,670,174,-19,0,946
07/10/99,14:45:01,672,174,-19,0,944
07/10/99,14:50:01,678,174,-19,0,946
07/10/99,14:55:01,681,174,-19,0,944
07/10/99,15:00:01,695,174,-19,0,946
07/10/99,15:05:01,747,174,-19,0,944
07/10/99,15:10:01,685,175,-19,0,944
07/10/99,15:15:01,622,175,-19,0,944
07/10/99,15:20:01,640,175,-19,0,946
07/10/99,15:25:01,561,175,-19,0,946
07/10/99,15:30:01,615,175,-19,0,946
07/10/99,15:35:01,666,176,-19,0,946
07/10/99,15:40:01,637,165,-21,0,946
07/10/99,15:45:01,642,165,-21,0,946
07/10/99,15:50:01,612,165,-21,0,946
07/10/99,15:55:01,631,165,-21,0,946
07/10/99,16:00:01,685,164,-21,0,946
07/10/99,16:05:01,680,164,-21,0,946
07/10/99,16:10:01,612,164,-21,0,946
07/10/99,16:15:01,707,164,-21,0,946
07/10/99,16:20:01,636,164,-21,0,946
07/10/99,16:25:01,631,164,-21,0,946
07/10/99,16:30:01,663,164,-21,0,946
07/10/99,16:35:01,654,164,-21,0,948
07/10/99,16:40:01,566,163,-21,0,948
07/10/99,16:45:01,615,163,-21,0,948
07/10/99,16:50:01,596,163,-21,0,948
07/10/99,16:55:01,671,163,-21,0,948
07/10/99,17:00:01,608,163,-21,0,948
07/10/99,17:05:01,633,163,-21,0,948
07/10/99,17:10:01,679,163,-21,0,948
07/10/99,17:15:01,650,163,-21,0,948
07/10/99,17:20:01,675,163,-21,0,948
07/10/99,17:25:01,606,163,-21,0,948
07/10/99,17:30:01,617,163,-21,0,948
07/10/99,17:35:01,651,163,-21,0,948
07/10/99,17:40:01,535,163,-21,0,948
07/10/99,17:45:01,655,163,-21,0,948
07/10/99,17:50:01,602,163,-21,0,946
07/10/99,17:55:01,658,163,-21,0,946
07/10/99,18:00:01,660,163,-21,0,948
07/10/99,18:05:01,628,166,-21,0,948
07/10/99,18:10:01,592,166,-21,0,948
07/10/99,18:15:01,619,166,-21,0,948
07/10/99,18:20:01,567,166,-21,0,948
07/10/99,18:25:01,574,166,-21,0,948
07/10/99,18:30:01,611,166,-21,0,948
07/10/99,18:35:01,523,166,-21,0,948
07/10/99,18:40:01,572,166,-21,0,948
07/10/99,18:45:01,502,166,-21,0,948
07/10/99,18:50:01,570,171,-21,0,948
07/10/99,18:55:01,524,173,-21,0,950
07/10/99,19:00:01,510,160,-21,0,950
07/10/99,19:05:01,518,167,-21,0,950
07/10/99,19:10:01,505,167,-21,0,950
07/10/99,19:15:01,493,171,-21,0,950
07/10/99,19:20:01,507,171,-21,0,950
07/10/99,19:25:01,557,171,-21,0,950
07/10/99,19:30:01,515,171,-21,0,950
07/10/99,19:35:01,561,171,-21,0,950
07/10/99,19:40:01,582,171,-21,0,950
07/10/99,19:45:01,595,170,-21,0,950
07/10/99,19:50:01,583,172,-21,0,948
07/10/99,19:55:01,600,165,-21,0,948
07/10/99,20:00:01,590,165,-21,0,948
07/10/99,20:05:01,607,165,-21,0,948
07/10/99,20:10:01,610,165,-21,0,948
07/10/99,20:15:01,602,164,-21,0,948
07/10/99,20:20:01,556,164,-21,0,948
07/10/99,20:25:01,540,164,-21,0,948
07/10/99,20:30:01,604,170,-21,0,948
07/10/99,20:35:01,554,171,-21,0,948
07/10/99,20:40:01,572,171,-21,0,948
07/10/99,20:45:01,559,163,-21,0,948
07/10/99,20:50:01,559,162,-21,0,948
07/10/99,20:55:01,581,170,-21,0,948
07/10/99,21:00:01,586,163,-21,0,948
07/10/99,21:05:01,564,163,-21,0,948
07/10/99,21:10:01,568,161,-21,0,948
07/10/99,21:15:01,546,165,-21,0,948
07/10/99,21:20:01,531,160,-21,0,948
07/10/99,21:25:01,566,175,-21,0,948
07/10/99,21:30:01,573,161,-21,0,948
07/10/99,21:35:01,557,143,-19,0,948
07/10/99,21:40:01,508,160,-19,0,948
07/10/99,21:45:01,524,163,-19,0,948
07/10/99,21:50:01,508,171,-19,0,948
07/10/99,21:55:01,512,157,-19,0,948
07/10/99,22:00:01,511,158,-19,0,948
07/10/99,22:05:01,515,158,-19,0,948
07/10/99,22:10:01,489,162,-19,0,948
07/10/99,22:15:01,517,161,-19,0,948
07/10/99,22:20:01,489,161,-19,0,948
07/10/99,22:25:01,531,171,-19,0,948
07/10/99,22:30:01,505,163,-19,0,950
07/10/99,22:35:01,469,167,-19,0,950
07/10/99,22:40:01,481,167,-19,0,950
07/10/99,22:45:01,480,165,-19,0,950
07/10/99,22:50:01,501,161,-19,0,950
07/10/99,22:55:01,443,153,-19,0,950
07/10/99,23:00:01,443,157,-19,0,950
07/10/99,23:05:01,510,171,-19,0,950
07/10/99,23:10:01,603,160,-19,0,948
07/10/99,23:15:01,579,160,-19,0,948
07/10/99,23:20:01,587,150,-19,0,948
07/10/99,23:25:01,538,174,-19,0,948
07/10/99,23:30:01,554,172,-19,0,948
07/10/99,23:35:01,546,166,-19,0,948
07/10/99,23:40:01,481,166,-19,0,950
07/10/99,23:45:01,551,166,-19,0,950
07/10/99,23:50:01,589,158,-19,0,948
07/10/99,23:55:01,604,164,-19,0,948
07/11/99,00:00:01,635,167,-19,0,948
